Weather History for KSDL - May, 2009

Change the Weather History Date:

Sunday, May 10, 2009

  Actual Average Record
Temperature  
Mean Temperature 84 °F -  
Max Temperature 98 °F 88 °F 100 °F (2001)
Min Temperature 70 °F 64 °F 53 °F (2003)
Cooling Degree Days 19    
Growing Degree Days 34 (Base 50)    
Moisture  
Dew Point 33 °F    
Average Humidity 16    
Maximum Humidity 32    
Minimum Humidity 9    
Precipitation  
Precipitation 0.00 in - - ()
Sea Level Pressure  
Sea Level Pressure 29.74 in    
Wind  
Wind Speed 2 mph (South)    
Max Wind Speed 7 mph    
Max Gust Speed 16 mph    
Visibility 10 miles    
Events      
Averages and records for this station are not official NWS values.
T = Trace of Precipitation, MM = Missing Value Source: NWS Daily Summary

Daily Weather History Graph

Daily Weather History Graph

Search for Another Location

Airport or City:

Trip Planner

Search our weather history database for the weather conditions in past years. The results will help you decide how hot, cold, wet, or windy it might be!

Date:

Astronomy

May. 10, 2009 Rise Set
Actual Time 5:30 AM MST 7:17 PM MST
Civil Twilight 5:03 AM MST 7:45 PM MST
Nautical Twilight 4:30 AM MST 8:18 PM MST
Astronomical Twilight 3:55 AM MST 8:52 PM MST
Moon 9:14 PM MST (5/10) 6:11 AM MST (5/10)
Length of Visible Light 14h 41m
Length of Day
13h 47m
Full, 97% of the Moon is Illuminated
May 10
Full
May 17
Last Quarter
May 24
New
May 30
First Quarter
Jun 7
Full

Hourly Weather History & Observations

Time (MST) Temp. Dew Point Humidity Pressure Visibility Wind Dir Wind Speed Gust Speed Precip Events Conditions
12:53 AM 82.0 °F 30.0 °F 15% 29.73 in 10.0 mi Calm Calm - N/A   Clear
1:53 AM 80.1 °F 32.0 °F 17% 29.73 in 10.0 mi Calm Calm - N/A   Clear
2:53 AM 77.0 °F 33.1 °F 20% 29.73 in 10.0 mi Calm Calm - N/A   Clear
3:53 AM 73.9 °F 34.0 °F 23% 29.73 in 10.0 mi SE 4.6 mph - N/A   Clear
4:53 AM 73.9 °F 33.1 °F 22% 29.75 in 10.0 mi Calm Calm - N/A   Clear
5:53 AM 70.0 °F 36.0 °F 29% 29.76 in 10.0 mi Calm Calm - N/A   Clear
6:53 AM 73.9 °F 42.1 °F 32% 29.79 in 10.0 mi Calm Calm - N/A   Clear
7:53 AM 80.1 °F 35.1 °F 20% 29.80 in 10.0 mi Calm Calm - N/A   Clear
8:53 AM 84.9 °F 28.0 °F 13% 29.80 in 10.0 mi SE 6.9 mph - N/A   Clear
9:53 AM 87.1 °F 28.9 °F 12% 29.80 in 10.0 mi SE 5.8 mph - N/A   Clear
10:53 AM 91.0 °F 30.0 °F 11% 29.80 in 10.0 mi Variable 4.6 mph - N/A   Clear
11:53 AM 93.0 °F 32.0 °F 12% 29.79 in 10.0 mi Variable 5.8 mph - N/A   Clear
12:53 PM 95.0 °F 33.1 °F 11% 29.77 in 10.0 mi West 5.8 mph - N/A   Clear
1:53 PM 96.1 °F 32.0 °F 10% 29.75 in 10.0 mi SE 4.6 mph - N/A   Clear
2:53 PM 97.0 °F 30.9 °F 10% 29.73 in 10.0 mi SW 5.8 mph - N/A   Clear
3:53 PM 98.1 °F 28.9 °F 9% 29.71 in 10.0 mi Calm Calm - N/A   Clear
4:53 PM 98.1 °F 30.0 °F 9% 29.69 in 10.0 mi Variable 3.5 mph - N/A   Clear
5:53 PM 98.1 °F 28.9 °F 9% 29.68 in 10.0 mi West 6.9 mph 16.1 mph N/A   Clear
6:53 PM 96.1 °F 30.0 °F 10% 29.68 in 10.0 mi Calm Calm - N/A   Clear
7:53 PM 93.0 °F 32.0 °F 12% 29.68 in 10.0 mi Calm Calm - N/A   Clear
8:53 PM 89.1 °F 36.0 °F 15% 29.70 in 10.0 mi Calm Calm - N/A   Clear
9:53 PM 87.1 °F 37.9 °F 18% 29.73 in 10.0 mi Calm Calm - N/A   Clear
10:53 PM 86.0 °F 37.9 °F 18% 29.73 in 10.0 mi WNW 4.6 mph - N/A   Clear
11:53 PM 82.9 °F 37.0 °F 19% 29.74 in 10.0 mi North 3.5 mph - N/A   Clear